| time (UTC) | temp F | wind direction | speed MPH | gust MPH | rain 1hr in | rain 24hr in | rain mn in | humidity % | barometer mb |
| 20260905230605 | 79 | 57 | 3.0 | 9.0 | 0.00 | 0.00 | 0.00 | 55 | 524.1 |
| 20260905225605 | 79 | 55 | 4.0 | 9.0 | 0.00 | 0.00 | 0.00 | 55 | 494.3 |
| 20260905224603 | 79 | 56 | 2.0 | 10.0 | 0.00 | 0.00 | 0.00 | 55 | 474.3 |
| 20260905223605 | 79 | 55 | 3.0 | 9.0 | 0.00 | 0.00 | 0.00 | 54 | 589.9 |
| 20260905222603 | 79 | 0 | 4.0 | 9.0 | 0.00 | 0.00 | 0.00 | 54 | 498.5 |
| 20260905222039 | 79 | 0 | 4.0 | 11.0 | 0.00 | 0.00 | 0.00 | 55 | 406.2 |
| 20260905221049 | 79 | 59 | 4.0 | 13.0 | 0.00 | 0.00 | 0.00 | 55 | 919.9 |
| 20260905215605 | 79 | 0 | 4.0 | 10.0 | 0.00 | 0.00 | 0.00 | 55 | 486.7 |
| 20260905214606 | 79 | 0 | 5.0 | 11.0 | 0.00 | 0.00 | 0.00 | 54 | 769.2 |
| 20260905213603 | 80 | 0 | 6.0 | 13.0 | 0.00 | 0.00 | 0.00 | 54 | 852.6 |
| 20260905212604 | 80 | 0 | 6.0 | 11.0 | 0.00 | 0.00 | 0.00 | 55 | 883.5 |
| 20260905211603 | 80 | 0 | 6.0 | 11.0 | 0.00 | 0.00 | 0.00 | 55 | 468.0 |
| 20260905210603 | 79 | 0 | 4.0 | 10.0 | 0.00 | 0.00 | 0.00 | 55 | 456.5 |
| 20260905205606 | 79 | 0 | 3.0 | 8.0 | 0.00 | 0.00 | 0.00 | 56 | 407.7 |
| 20260905204605 | 80 | 0 | 3.0 | 9.0 | 0.00 | 0.00 | 0.00 | 56 | 498.1 |
| 20260905203600 | 80 | 0 | 3.0 | 6.0 | 0.00 | 0.00 | 0.00 | 56 | 460.6 |
| 20260905202600 | 80 | 0 | 3.0 | 8.0 | 0.00 | 0.00 | 0.00 | 57 | 426.2 |
| 20260905201602 | 80 | 0 | 4.0 | 9.0 | 0.00 | 0.00 | 0.00 | 58 | 745.7 |
| 20260905201029 | 79 | 0 | 3.0 | 6.0 | 0.00 | 0.00 | 0.00 | 59 | 559.9 |
| 20260905195552 | 79 | 0 | 2.0 | 8.0 | 0.00 | 0.00 | 0.00 | 60 | 503.7 |
| 20260905194553 | 80 | 0 | 1.0 | 6.0 | 0.00 | 0.00 | 0.00 | 60 | 1048.5 |
| 20260905193547 | 80 | 0 | 2.0 | 8.0 | 0.00 | 0.00 | 0.00 | 59 | 615.2 |
| 20260905192545 | 80 | 0 | 2.0 | 8.0 | 0.00 | 0.00 | 0.00 | 59 | 922.1 |
| 20260905192510 | 80 | 0 | 2.0 | 7.0 | 0.00 | 0.00 | 0.00 | 60 | 865.2 |
| 20260905190539 | 81 | 95 | 2.0 | 6.0 | 0.00 | 0.00 | 0.00 | 64 | 1125.0 |
| 20260905190009 | 81 | 95 | 0.0 | 6.0 | 0.00 | 0.00 | 0.00 | 69 | 1084.2 |
| 20260905184537 | 81 | 95 | 0.0 | 0.0 | 0.00 | 0.00 | 0.00 | 71 | 988.4 |
| 20260905183533 | 82 | 95 | 0.0 | 0.0 | 0.00 | 0.00 | 0.00 | 70 | 1016.9 |
| 20260905182532 | 82 | 95 | 0.0 | 3.0 | 0.00 | 0.00 | 0.00 | 68 | 515.2 |
| 20260905182005 | 82 | 95 | 0.0 | 4.0 | 0.00 | 0.00 | 0.00 | 67 | 726.1 |
| 20260905180530 | 82 | 95 | 2.0 | 7.0 | 0.00 | 0.00 | 0.00 | 67 | 1066.0 |
| 20260905175523 | 83 | 104 | 1.0 | 4.0 | 0.00 | 0.00 | 0.00 | 64 | 481.2 |
| 20260905175000 | 84 | 103 | 0.0 | 0.0 | 0.00 | 0.00 | 0.00 | 61 | 898.4 |
| 20260905173523 | 85 | 103 | 0.0 | 0.0 | 0.00 | 0.00 | 0.00 | 59 | 584.2 |
| 20260905172523 | 85 | 103 | 0.0 | 4.0 | 0.00 | 0.00 | 0.00 | 58 | 460.8 |
| 20260905171518 | 86 | 103 | 1.0 | 6.0 | 0.00 | 0.00 | 0.00 | 57 | 1008.6 |
| 20260905170512 | 87 | 103 | 0.0 | 0.0 | 0.00 | 0.00 | 0.00 | 55 | 989.6 |
| 20260905165517 | 87 | 103 | 0.0 | 4.0 | 0.00 | 0.00 | 0.00 | 53 | 466.2 |
| 20260905164953 | 88 | 103 | 0.0 | 3.0 | 0.00 | 0.00 | 0.00 | 53 | 510.8 |
| 20260905163507 | 88 | 103 | 0.0 | 0.0 | 0.00 | 0.00 | 0.00 | 52 | 472.8 |
| 20260905163005 | 88 | 103 | 0.0 | 2.0 | 0.00 | 0.00 | 0.00 | 51 | 788.6 |
| 20260905161505 | 88 | 103 | 0.0 | 4.0 | 0.00 | 0.00 | 0.00 | 51 | 814.1 |
| 20260905160505 | 88 | 103 | 1.0 | 6.0 | 0.00 | 0.00 | 0.00 | 49 | 587.9 |
| 20260905155504 | 88 | 100 | 2.0 | 7.0 | 0.00 | 0.00 | 0.00 | 50 | 462.6 |
| 20260905155422 | 88 | 90 | 1.0 | 6.0 | 0.00 | 0.00 | 0.00 | 49 | 489.7 |
| 20260905153504 | 88 | 96 | 1.0 | 6.0 | 0.00 | 0.00 | 0.00 | 48 | 755.3 |
| 20260905152503 | 89 | 96 | 1.0 | 7.0 | 0.00 | 0.00 | 0.00 | 47 | 429.0 |
| 20260905151507 | 89 | 103 | 1.0 | 3.0 | 0.00 | 0.00 | 0.00 | 47 | 901.1 |
| 20260905150506 | 89 | 103 | 0.0 | 4.0 | 0.00 | 0.00 | 0.00 | 46 | 1022.1 |
| 20260905145504 | 89 | 103 | 1.0 | 4.0 | 0.00 | 0.00 | 0.00 | 45 | 928.1 |
| 20260905144507 | 89 | 108 | 1.0 | 6.0 | 0.00 | 0.00 | 0.00 | 46 | 453.9 |
| 20260905143503 | 88 | 107 | 1.0 | 6.0 | 0.00 | 0.00 | 0.00 | 47 | 929.7 |
| 20260905142504 | 89 | 0 | 1.0 | 7.0 | 0.00 | 0.00 | 0.00 | 47 | 452.5 |
| 20260905141505 | 88 | 0 | 0.0 | 3.0 | 0.00 | 0.00 | 0.00 | 49 | 622.9 |
| 20260905140458 | 88 | 0 | 2.0 | 7.0 | 0.00 | 0.00 | 0.00 | 47 | 434.7 |
| 20260905135459 | 89 | 117 | 1.0 | 8.0 | 0.00 | 0.00 | 0.00 | 47 | 557.9 |
| 20260905134456 | 89 | 148 | 1.0 | 7.0 | 0.00 | 0.00 | 0.00 | 46 | 535.6 |
| 20260905134430 | 89 | 114 | 0.0 | 6.0 | 0.00 | 0.00 | 0.00 | 48 | 1077.4 |
| 20260905132448 | 89 | 122 | 2.0 | 9.0 | 0.00 | 0.00 | 0.00 | 46 | 562.4 |
| 20260905131445 | 88 | 126 | 1.0 | 7.0 | 0.00 | 0.00 | 0.00 | 46 | 935.6 |
| 20260905130447 | 88 | 91 | 3.0 | 7.0 | 0.00 | 0.00 | 0.00 | 45 | 1055.4 |
| 20260905125929 | 89 | 114 | 1.0 | 8.0 | 0.00 | 0.00 | 0.00 | 44 | 1085.5 |
| 20260905124440 | 89 | 132 | 1.0 | 6.0 | 0.00 | 0.00 | 0.00 | 44 | 568.2 |
| 20260905123440 | 89 | 137 | 0.0 | 5.0 | 0.00 | 0.00 | 0.00 | 44 | 430.4 |
| 20260905122444 | 88 | 155 | 1.0 | 6.0 | 0.00 | 0.00 | 0.00 | 43 | 463.9 |
| 20260905121433 | 88 | 24 | 1.0 | 4.0 | 0.00 | 0.00 | 0.00 | 42 | 522.8 |
| 20260905120432 | 87 | 310 | 0.0 | 4.0 | 0.00 | 0.00 | 0.00 | 44 | 1025.5 |
| 20260905115431 | 86 | 321 | 1.0 | 5.0 | 0.00 | 0.00 | 0.00 | 45 | 451.2 |
| 20260905114432 | 87 | 336 | 0.0 | 5.0 | 0.00 | 0.00 | 0.00 | 44 | 433.7 |
| 20260905113434 | 86 | 342 | 0.0 | 4.0 | 0.00 | 0.00 | 0.00 | 44 | 963.9 |
| 20260905112432 | 86 | 46 | 0.0 | 2.0 | 0.00 | 0.00 | 0.00 | 46 | 796.9 |
| 20260905111431 | 85 | 45 | 0.0 | 3.0 | 0.00 | 0.00 | 0.00 | 44 | 832.5 |
| 20260905110441 | 86 | 61 | 1.0 | 4.0 | 0.00 | 0.00 | 0.00 | 43 | 514.1 |
| 20260905105905 | 86 | 0 | 1.0 | 4.0 | 0.00 | 0.00 | 0.00 | 44 | 447.6 |
| 20260905104426 | 86 | 55 | 1.0 | 6.0 | 0.00 | 0.00 | 0.00 | 44 | 629.7 |
| 20260905103428 | 85 | 105 | 1.0 | 4.0 | 0.00 | 0.00 | 0.00 | 46 | 561.1 |
| 20260905102422 | 85 | 111 | 0.0 | 1.0 | 0.00 | 0.00 | 0.00 | 48 | 671.9 |
| 20260905101421 | 84 | 111 | 0.0 | 0.0 | 0.00 | 0.00 | 0.00 | 49 | 1015.9 |
| 20260905100421 | 83 | 111 | 0.0 | 0.0 | 0.00 | 0.00 | 0.00 | 50 | 415.0 |
| 20260905095412 | 83 | 111 | 0.0 | 0.0 | 0.00 | 0.00 | 0.00 | 49 | 1103.8 |
| 20260905094854 | 83 | 111 | 0.0 | 0.0 | 0.00 | 0.00 | 0.00 | 49 | 626.7 |
| 20260905093411 | 83 | 111 | 0.0 | 2.0 | 0.00 | 0.00 | 0.00 | 51 | 825.1 |
| 20260905092840 | 83 | 111 | 1.0 | 3.0 | 0.00 | 0.00 | 0.00 | 50 | 733.1 |
| 20260905091406 | 82 | 111 | 0.0 | 4.0 | 0.00 | 0.00 | 0.00 | 51 | 790.2 |
| 20260905090406 | 82 | 111 | 0.0 | 4.0 | 0.00 | 0.00 | 0.00 | 51 | 508.1 |
| 20260905085401 | 83 | 111 | 0.0 | 3.0 | 0.00 | 0.00 | 0.00 | 52 | 675.8 |
| 20260905084358 | 83 | 111 | 0.0 | 0.0 | 0.00 | 0.00 | 0.00 | 52 | 438.0 |
| 20260905083359 | 83 | 111 | 0.0 | 0.0 | 0.00 | 0.00 | 0.00 | 55 | 1186.2 |
| 20260905082356 | 82 | 111 | 1.0 | 7.0 | 0.00 | 0.00 | 0.00 | 54 | 672.3 |
| 20260905081354 | 83 | 109 | 0.0 | 3.0 | 0.00 | 0.00 | 0.00 | 56 | 1001.7 |
| 20260905080356 | 81 | 109 | 0.0 | 3.0 | 0.00 | 0.00 | 0.00 | 57 | 905.6 |
| 20260905075349 | 80 | 109 | 2.0 | 6.0 | 0.00 | 0.00 | 0.00 | 59 | 725.2 |
| 20260905074348 | 80 | 101 | 1.0 | 4.0 | 0.00 | 0.00 | 0.00 | 63 | 639.2 |
| 20260905073350 | 79 | 102 | 1.0 | 6.0 | 0.00 | 0.00 | 0.00 | 65 | 434.5 |
| 20260905072344 | 78 | 102 | 1.0 | 4.0 | 0.00 | 0.00 | 0.00 | 69 | 576.7 |
| 20260905071344 | 77 | 113 | 1.0 | 6.0 | 0.00 | 0.00 | 0.00 | 72 | 1109.0 |
| 20260905070823 | 76 | 116 | 0.0 | 6.0 | 0.00 | 0.00 | 0.00 | 74 | 534.8 |
| 20260905065340 | 75 | 118 | 0.0 | 3.0 | 0.00 | 0.00 | 0.00 | 75 | 902.2 |
| 20260905064340 | 75 | 118 | 0.0 | 1.0 | 0.00 | 0.00 | 0.00 | 75 | 760.8 |
| 20260905063817 | 75 | 118 | 0.0 | 4.0 | 0.00 | 0.00 | 0.00 | 76 | 1241.5 |
| 20260905062334 | 75 | 118 | 0.0 | 3.0 | 0.00 | 0.00 | 0.00 | 76 | 715.0 |
| 20260905061331 | 74 | 118 | 0.0 | 2.0 | 0.00 | 0.00 | 0.00 | 77 | 628.0 |
| 20260905060332 | 73 | 118 | 1.0 | 4.0 | 0.00 | 0.00 | 0.00 | 78 | 488.6 |
| 20260905055334 | 72 | 118 | 1.0 | 6.0 | 0.00 | 0.00 | 0.00 | 80 | 586.0 |
| 20260905054331 | 71 | 134 | 0.0 | 0.0 | 0.00 | 0.00 | 0.00 | 81 | 1011.0 |
| 20260905053334 | 71 | 134 | 0.0 | 1.0 | 0.00 | 0.00 | 0.00 | 81 | 612.6 |
| 20260905052330 | 71 | 134 | 0.0 | 0.0 | 0.00 | 0.00 | 0.00 | 82 | 501.5 |
| 20260905051331 | 70 | 134 | 0.0 | 0.0 | 0.00 | 0.00 | 0.00 | 83 | 452.3 |
| 20260905050327 | 70 | 134 | 0.0 | 0.0 | 0.00 | 0.00 | 0.00 | 83 | 740.3 |
| 20260905045325 | 70 | 134 | 0.0 | 0.0 | 0.00 | 0.00 | 0.00 | 83 | 542.9 |
| 20260905044326 | 70 | 134 | 0.0 | 0.0 | 0.00 | 0.00 | 0.00 | 83 | 577.1 |
| 20260905043322 | 70 | 134 | 1.0 | 3.0 | 0.00 | 0.00 | 0.00 | 83 | 1145.6 |
| 20260905042321 | 70 | 134 | 0.0 | 0.0 | 0.00 | 0.00 | 0.00 | 83 | 497.0 |
| 20260905041321 | 70 | 134 | 0.0 | 0.0 | 0.00 | 0.00 | 0.00 | 83 | 478.9 |
| 20260905040321 | 69 | 134 | 0.0 | 0.0 | 0.00 | 0.00 | 0.00 | 83 | 464.6 |
| 20260905035321 | 70 | 134 | 0.0 | 0.0 | 0.00 | 0.00 | 0.00 | 83 | 476.5 |
| 20260905034318 | 70 | 134 | 0.0 | 0.0 | 0.00 | 0.00 | 0.00 | 82 | 465.4 |
| 20260905033320 | 71 | 134 | 0.0 | 0.0 | 0.00 | 0.00 | 0.00 | 81 | 660.1 |
| 20260905032757 | 71 | 134 | 0.0 | 0.0 | 0.00 | 0.00 | 0.00 | 81 | 601.5 |
| 20260905031313 | 71 | 134 | 0.0 | 0.0 | 0.00 | 0.00 | 0.00 | 81 | 448.7 |
| 20260905030317 | 71 | 134 | 0.0 | 3.0 | 0.00 | 0.00 | 0.00 | 80 | 706.6 |
| 20260905025743 | 71 | 139 | 0.0 | 1.0 | 0.00 | 0.00 | 0.00 | 80 | 758.4 |
| 20260905024304 | 71 | 139 | 0.0 | 0.0 | 0.00 | 0.00 | 0.00 | 80 | 454.5 |
| 20260905023746 | 71 | 139 | 0.0 | 0.0 | 0.00 | 0.00 | 0.00 | 79 | 581.0 |
| 20260905022756 | 71 | 139 | 0.0 | 0.0 | 0.00 | 0.00 | 0.00 | 78 | 840.9 |
| 20260905021305 | 71 | 139 | 0.0 | 0.0 | 0.00 | 0.00 | 0.00 | 78 | 456.0 |
| 20260905020738 | 71 | 139 | 0.0 | 0.0 | 0.00 | 0.00 | 0.00 | 77 | 664.2 |
| 20260905015306 | 71 | 139 | 0.0 | 0.0 | 0.00 | 0.00 | 0.00 | 77 | 462.6 |
| 20260905014300 | 71 | 139 | 0.0 | 0.0 | 0.00 | 0.00 | 0.00 | 78 | 461.2 |
| 20260905013303 | 71 | 139 | 0.0 | 2.0 | 0.00 | 0.00 | 0.00 | 77 | 467.2 |
| 20260905012254 | 71 | 139 | 0.0 | 3.0 | 0.00 | 0.00 | 0.00 | 77 | 488.2 |
| 20260905011252 | 71 | 140 | 0.0 | 3.0 | 0.00 | 0.00 | 0.00 | 78 | 473.0 |
| 20260905010251 | 71 | 143 | 0.0 | 2.0 | 0.00 | 0.00 | 0.00 | 78 | 460.1 |
| 20260905005245 | 71 | 144 | 0.0 | 0.0 | 0.00 | 0.00 | 0.00 | 77 | 543.8 |
| 20260905004244 | 72 | 144 | 0.0 | 3.0 | 0.00 | 0.00 | 0.00 | 77 | 465.6 |
| 20260905003243 | 72 | 144 | 0.0 | 3.0 | 0.00 | 0.00 | 0.00 | 77 | 523.4 |
| 20260905002711 | 72 | 144 | 0.0 | 4.0 | 0.00 | 0.00 | 0.00 | 77 | 805.1 |
| 20260905001234 | 72 | 148 | 0.0 | 3.0 | 0.00 | 0.00 | 0.00 | 77 | 507.8 |
| 20260905000233 | 72 | 148 | 0.0 | 0.0 | 0.00 | 0.00 | 0.00 | 77 | 451.2 |
| 20260904235716 | 72 | 148 | 0.0 | 0.0 | 0.00 | 0.00 | 0.00 | 77 | 474.3 |
| 20260904234231 | 72 | 148 | 0.0 | 0.0 | 0.00 | 0.00 | 0.00 | 77 | 512.0 |
| 20260904233232 | 72 | 148 | 0.0 | 0.0 | 0.00 | 0.00 | 0.00 | 76 | 450.1 |
| 20260904232224 | 73 | 148 | 0.0 | 0.0 | 0.00 | 0.00 | 0.00 | 76 | 458.6 |
| 20260904231224 | 73 | 148 | 0.0 | 5.0 | 0.00 | 0.00 | 0.00 | 75 | 530.6 |